sat.trackr.live / text

‹ back to catalog

STARLINK-3099

NORAD 49446 · 2021-104AQ

PAYLOAD ACTIVE UNKNOWN

§ Identity

Operator
Country
US
Launch date
2021-11-13
Launch site
AFETR
Launch vehicle
Mass (kg)
RCS (m²)

Purposes: comms

External: N2YO · Heavens-Above · Gunter

§ Orbital elements

Epoch: 2026-09-14T20:39:25.419168Z

Period
94.01 min
Inclination
53.1599°
Eccentricity
0.0001486
Mean motion
15.31701807 rev/d
Perigee alt
469.7 km
Apogee alt
471.8 km
Semi-major
6,848.9 km
B*
5.5010e-5
RAAN
72.2956°
Arg perigee
86.7920°
Mean anomaly
273.3251°
Rev number
26,757

§ Raw data

STARLINK-30991 49446U 21104AQ  26257.86071087  .00001342  00000+0  55010-4 0  99982 49446  53.1599  72.2956 0001486  86.7920 273.3251 15.31701807267576

JSON: /api/v1/satellites/49446 · /tle

For live sub-satellite position, see the globe view (requires WebGL).

§ Visibility from observer

Set your observer location to see the next 7 days of passes ≥ 10°. The values pass through the URL so the page stays shareable.

No JS? Fill the form by hand. The geolocation button needs JavaScript.